Flag for Germany Weather for the Past 2 Weeks in Rotenburg (Wümme), Lower Saxony, Germany

Now
45 °F

Clear.


Feels Like: 40 °F
Forecast: 43 / 50 °F
Wind: 9 mph from Southeast

Location: Bremen Airport

Current Time: Feb 6, 2016 at 8:11:50 PM

Latest Report: Feb 6, 2016 at 7:50 PM


Visibility: 10 mi

Pressure: 29.68 "Hg

Humidity: 87%

Dew point: 41 °F

Location of Rotenburg (Wümme)Location

Historic Weather in Rotenburg (Wümme) — Graph

°F

Rotenburg (Wümme) Temperature Yesterday

Maximum temperature yesterday: 48 °F (at 8:50 PM)
Minimum temperature yesterday: 32 °F (at 12:20 AM)
Average temperature yesterday: 41 °F

High & Low Weather Summary for the Past Weeks

 TemperatureHumidityPressure
High54 °F (Jan 25, 2:50 PM)100% (Jan 23, 2:20 AM)30.48 "Hg (Jan 23, 2:20 AM)
Low27 °F (Jan 22, 6:20 PM)61% (Feb 3, 1:20 PM)29.56 "Hg (Jan 30, 2:50 PM)
Average44 °F86%29.99 "Hg
* Reported Jan 22 6:20 PM — Feb 6 6:50 PM, Rotenburg (Wümme), Weather by CustomWeather, © 2016

Note: Actual official high and low records may vary slightly from our data, if they occured in-between our weather recording intervals... More about our weather records

Advertising

Rotenburg (Wümme) Weather History for the Previous 24 Hours

 ConditionsComfort  
Time TempWeatherWind HumidityBarometerVisibility
6:50 PM
Sat, Feb 6
46 °FClear.6 mph82%29.68 "Hg10 mi
6:20 PM45 °FClear.5 mph87%29.71 "Hg10 mi
5:50 PM46 °FPassing clouds.6 mph82%29.71 "HgN/A
5:20 PM48 °FPassing clouds.7 mph76%29.71 "HgN/A
4:50 PM50 °FPartly sunny.13 mph71%29.74 "HgN/A
4:20 PM50 °FPartly sunny.10 mph76%29.74 "HgN/A
3:50 PM50 °FPartly sunny.10 mph76%29.74 "HgN/A
3:20 PM50 °FPartly sunny.13 mph76%29.74 "HgN/A
2:50 PM50 °FPartly sunny.10 mph76%29.77 "HgN/A
2:20 PM50 °FPartly sunny.16 mph71%29.77 "HgN/A
1:50 PM50 °FPartly sunny.14 mph76%29.77 "HgN/A
1:20 PM50 °FPartly sunny.10 mph76%29.80 "HgN/A
12:50 PM50 °FPartly sunny.13 mph76%29.80 "HgN/A
12:20 PM50 °FPartly sunny.13 mph76%29.83 "HgN/A
11:50 AM50 °FPartly sunny.14 mph76%29.83 "HgN/A
11:20 AM48 °FPartly sunny.14 mph82%29.83 "HgN/A
10:50 AM50 °FPartly sunny.14 mph76%29.86 "HgN/A
10:20 AM48 °FPartly sunny.14 mph82%29.86 "HgN/A
9:50 AM46 °FBroken clouds.14 mph87%29.86 "HgN/A
9:20 AM48 °FPartly sunny.15 mph82%29.86 "HgN/A
8:50 AM48 °FPartly sunny.12 mph82%29.86 "HgN/A
8:20 AM48 °FPartly sunny.14 mph82%29.89 "HgN/A
7:50 AM48 °FPartly cloudy.14 mph87%29.89 "HgN/A
7:20 AM48 °FPassing clouds.12 mph87%29.89 "HgN/A
6:50 AM48 °FPassing clouds.13 mph87%29.89 "HgN/A
6:20 AM48 °FPassing clouds.10 mph87%29.92 "HgN/A
5:50 AM48 °FPassing clouds.10 mph87%29.92 "HgN/A
5:20 AM48 °FPassing clouds.10 mph87%29.92 "HgN/A
4:50 AM48 °FPassing clouds.12 mph87%29.95 "HgN/A
4:20 AM48 °FPartly cloudy.10 mph87%29.95 "HgN/A
3:50 AM48 °FPassing clouds.10 mph87%29.95 "HgN/A
3:20 AM48 °FPassing clouds.10 mph87%29.95 "HgN/A
2:50 AM48 °FPassing clouds.10 mph94%29.98 "HgN/A
2:20 AM48 °FPassing clouds.10 mph94%29.98 "HgN/A
1:20 AM48 °FPassing clouds.9 mph94%30.01 "Hg5 mi
12:50 AM48 °FPassing clouds.10 mph94%30.01 "Hg4 mi
12:20 AM48 °FPassing clouds.10 mph94%30.01 "Hg4 mi
11:50 PM
Fri, Feb 5
48 °FPassing clouds.10 mph94%30.04 "Hg5 mi
11:20 PM48 °FPassing clouds.10 mph94%30.04 "Hg5 mi
10:50 PM48 °FPassing clouds.9 mph94%30.04 "Hg5 mi
10:20 PM48 °FPassing clouds.9 mph94%30.04 "Hg4 mi
9:50 PM48 °FPassing clouds.9 mph94%30.04 "Hg4 mi
9:20 PM48 °FPassing clouds.8 mph94%30.07 "Hg4 mi
8:50 PM48 °FFog.8 mph94%30.07 "Hg3 mi
8:20 PM46 °FPassing clouds.7 mph100%30.07 "Hg2 mi
Weather by CustomWeather, © 2016

See weather overviewHow to use our weather pages